Wilmington, DE

3:50 AM EDT on July 28, 2017 (GMT -0400)
New Castle County

Weather History for KILG - October, 2013

Change the Weather History Date:

Wednesday, October 9, 2013

  Actual Average Record
Temperature  
Mean Temperature 58 °F 58 °F  
Max Temperature 63 °F 69 °F 87 °F (2007)
Min Temperature 53 °F 48 °F 31 °F (2001)
Degree Days  
Heating Degree Days 7 7  
Month to date heating degree days 14 54  
Since 1 July heating degree days 83 106  
Cooling Degree Days 0 1  
Month to date cooling degree days 45 10  
Year to date cooling degree days 1237 1137  
Growing Degree Days 8 (Base 50)    
Moisture  
Dew Point 47 °F    
Average Humidity 67    
Maximum Humidity 77    
Minimum Humidity 56    
Precipitation  
Precipitation T in 0.12 in 3.00 in (1903)
Month to date precipitation 0.39 1.11  
Year to date precipitation 38.64 34.19  
Snow  
Snow 0.00 in 0.00 in T in (1895)
Month to date snowfall 0.0 0.0  
Since 1 July snowfall 0.0 0.0  
Since 1 September snowfall 0.0 0.0  
Snow Depth 0.00 in    
Sea Level Pressure  
Sea Level Pressure 30.30 in    
Wind  
Wind Speed 15 mph (NE)    
Max Wind Speed 23 mph    
Max Gust Speed 31 mph    
Visibility 10 miles    
Events Rain    
T = Trace of Precipitation, MM = Missing Value Source: NWS Daily Summary

Daily Weather History Graph

Daily Weather History Graph

Search for Another Location

Airport or City:

Trip Planner

Search our weather history database for the weather conditions in past years. The results will help you decide how hot, cold, wet, or windy it might be!

Date:

Astronomy

Oct. 09, 2013 Rise Set
Actual Time 7:06 AM EDT 6:31 PM EDT
Civil Twilight 6:39 AM EDT 6:58 PM EDT
Nautical Twilight 6:08 AM EDT 7:30 PM EDT
Astronomical Twilight 5:37 AM EDT 8:01 PM EDT
Moon 11:59 AM EDT (10/9) 10:04 PM EDT (10/9)
Length of Visible Light 12h 19m
Length of Day
11h 25m
Waxing Crescent, 25% of the Moon is Illuminated
Oct 9
Waxing Crescent
Oct 11
First Quarter
Oct 18
Full
Oct 26
Last Quarter
Nov 3
New

Hourly Weather History & Observations

Time (EDT) Temp. Dew Point Humidity Pressure Visibility Wind Dir Wind Speed Gust Speed Precip Events Conditions
12:51 AM 54.0 °F 46.9 °F 77% 30.30 in 10.0 mi North 6.9 mph - N/A   Clear
1:51 AM 54.0 °F 45.0 °F 72% 30.31 in 10.0 mi NNE 8.1 mph - N/A   Clear
2:51 AM 54.0 °F 44.1 °F 69% 30.30 in 10.0 mi North 6.9 mph - N/A   Clear
3:51 AM 55.0 °F 44.1 °F 67% 30.29 in 10.0 mi NNE 10.4 mph - N/A   Clear
4:51 AM 54.0 °F 44.1 °F 69% 30.31 in 10.0 mi NNE 9.2 mph - N/A   Clear
5:51 AM 55.9 °F 45.0 °F 67% 30.29 in 10.0 mi NNE 11.5 mph - N/A   Partly Cloudy
6:51 AM 55.0 °F 45.0 °F 69% 30.31 in 10.0 mi NNE 11.5 mph - N/A   Scattered Clouds
7:51 AM 55.9 °F 43.0 °F 62% 30.32 in 10.0 mi NNE 12.7 mph - N/A   Clear
8:51 AM 57.0 °F 43.0 °F 59% 30.34 in 10.0 mi NE 15.0 mph - N/A   Clear
9:51 AM 57.0 °F 44.1 °F 62% 30.35 in 10.0 mi NNE 13.8 mph - N/A   Clear
10:51 AM 57.9 °F 46.0 °F 65% 30.35 in 10.0 mi NNE 15.0 mph - N/A   Clear
11:51 AM 60.1 °F 48.0 °F 64% 30.33 in 10.0 mi NE 15.0 mph 23.0 mph N/A   Clear
12:51 PM 62.1 °F 48.9 °F 62% 30.32 in 10.0 mi ENE 18.4 mph 23.0 mph N/A   Partly Cloudy
1:28 PM 62.6 °F 48.2 °F 59% 30.32 in 10.0 mi NE 19.6 mph 26.5 mph N/A   Mostly Cloudy
1:49 PM 62.6 °F 48.2 °F 59% 30.32 in 10.0 mi NE 20.7 mph 25.3 mph N/A   Mostly Cloudy
1:51 PM 62.1 °F 48.9 °F 62% 30.32 in 10.0 mi NE 19.6 mph 25.3 mph N/A   Mostly Cloudy
2:51 PM 63.0 °F 46.9 °F 56% 30.32 in 10.0 mi ENE 15.0 mph - N/A   Scattered Clouds
3:51 PM 63.0 °F 48.0 °F 58% 30.30 in 10.0 mi ENE 15.0 mph 23.0 mph N/A   Scattered Clouds
4:51 PM 62.1 °F 48.0 °F 60% 30.28 in 10.0 mi NE 18.4 mph 26.5 mph N/A   Clear
5:51 PM 61.0 °F 48.0 °F 62% 30.30 in 10.0 mi ENE 13.8 mph 23.0 mph N/A   Partly Cloudy
6:51 PM 60.1 °F 48.0 °F 64% 30.28 in 10.0 mi NE 19.6 mph - N/A   Clear
7:51 PM 60.1 °F 48.9 °F 67% 30.28 in 10.0 mi ENE 15.0 mph - N/A   Partly Cloudy
8:51 PM 60.1 °F 48.0 °F 64% 30.27 in 10.0 mi ENE 18.4 mph 27.6 mph N/A   Mostly Cloudy
9:51 PM 60.1 °F 48.9 °F 67% 30.27 in 10.0 mi ENE 18.4 mph 25.3 mph N/A   Scattered Clouds
10:51 PM 60.1 °F 48.9 °F 67% 30.25 in 10.0 mi NE 15.0 mph - N/A   Overcast
11:51 PM 59.0 °F 50.0 °F 72% 30.24 in 10.0 mi ENE 17.3 mph 29.9 mph 0.00 in Rain Light Rain